Location: Bailleul
(50.3375°N, 2.8513°E)
Time: 08:02:56
(UTC+00:00)

Cosmos 1606 Rocket - Pass Details

Date: 16 June 2021
Orbit: 602 x 633 km, 82.5° (Epoch: 26 July)

Event Time Altitude Azimuth Distance (km) Brightness Sun altitude
Rises 22:02:57 0° 354° (N) 2,942 8.5 -12.6°
Reaches altitude 10° 22:05:18 10° 1° (N) 2,027 7.3 -12.8°
Maximum altitude 22:09:37 44° 74° (ENE) 874 4.2 -13.0°
Enters shadow 22:12:29 19° 139° (SE) 1,494 4.9 -13.2°
